Weather Roundup
Issued by NWS

Home | Current Version | Previous Version | Graphics & Text | Print | Product List | Glossary Off
Versions: 1 2 3 4 5 6 7 8 9 10 11 12 13 14 15 16 17 18 19 20 21 22 23 24 25 26 27 28 29 30 31 32 33 34 35 36 37 38 39 40 41 42 43 44 45 46 47 48 49 50

000
NZUS93 KARX 240259
HRRWXR

CURRENT HOURLY OBSERVATIONS ACROSS
MUCH OF THE UPPER MISSISSIPPI VALLEY
NATIONAL WEATHER SERVICE LA CROSSE WI
900 PM CST TUE DEC 23 2014


...SOUTHEAST MINNESOTA...


CITY           SKY/WX    TMP DP  RH WIND       PRES   REMARKS
ROCHESTER      CLOUDY    33  31  92 N16       29.77R WCI  23
ROCHESTER/MAYO CLOUDY    34  32  93 NW8       29.77S WCI  27
WINONA         CLOUDY    36  34  93 NW8       29.76S WCI  29
AUSTIN         CLOUDY    34  32  93 N10G17    29.77R WCI  26
ALBERT LEA     CLOUDY    34  34 100 N10G16    29.79R WCI  26
DODGE CENTER   CLOUDY    34  34 100 N12       29.78R WCI  25
PRESTON        CLOUDY    32  31  96 N10       29.75S WCI  24
OWATONNA       CLOUDY    34  32  93 N12       29.81R WCI  25
FARIBAULT      CLOUDY    36  32  87 N12       29.82R WCI  27
$$

...ELSEWHERE IN MINNESOTA...


CITY           SKY/WX    TMP DP  RH WIND       PRES   REMARKS
MINNEAPOLIS    CLOUDY    35  31  85 N15       29.83S WCI  25
INTNL FALLS    CLOUDY    33  32  96 NW3       29.89S
DULUTH         CLOUDY    34  31  88 N7        29.82R WCI  28
RED WING       CLOUDY    36  32  87 N7        29.80R WCI  30
REDWOOD FALLS  CLOUDY    35  33  92 NW12      29.89S WCI  27
MANKATO        CLOUDY    36  30  80 N16       29.83R WCI  26
WORTHINGTON    CLOUDY    34 -17  11 N18G28    29.88S WCI  23
FAIRMONT       CLOUDY    34  30  86 N17       29.83R WCI  23
$$

...SOUTHWEST WISCONSIN...


CITY           SKY/WX    TMP DP  RH WIND       PRES   REMARKS
LA CROSSE      CLOUDY    35  33  92 NW6       29.74S WCI  30
PRAIRIE DU CHI CLOUDY    35  33  94 CALM      29.75R FOG
BOSCOBEL       CLOUDY    36  34  92 CALM      29.74R
LONE ROCK      NOT AVBL
PLATTEVILLE    CLOUDY    35  34  96 CALM      29.73F
FORT MC COY    CLOUDY    34  34  99 NW3       29.74R
VIROQUA        CLOUDY    33  33 100 NW3       29.72R VSB 1/4
WIS DELLS      NOT AVBL
$$

...ELSEWHERE IN WISCONSIN...


CITY           SKY/WX    TMP DP  RH WIND       PRES   REMARKS
MILWAUKEE      MOCLDY    42  33  70 W3        29.75R
MADISON        CLOUDY    38  36  92 VRB3      29.72R
GREEN BAY      CLOUDY    38  37  97 S3        29.73S FOG
EAU CLAIRE     NOT AVBL
BLACK RVR FLS  CLOUDY    35  35 100 CALM      29.73R
MEDFORD        CLOUDY    33  31  94 N7        29.71S WCI  26
WAUSAU         CLOUDY    34  33  96 NE3       29.69S FOG
WIS RAPIDS     FOG       33  32  96 CALM      29.72R VSB 1/4
MARSHFIELD     CLOUDY    34  32  92 N7        29.70S FOG     WCI  28
RICE LAKE      LGT SNOW  33  31  94 N6        29.81R WCI  27
$$

...NORTHEAST IOWA...


CITY           SKY/WX    TMP DP  RH WIND       PRES   REMARKS
DECORAH        CLOUDY    34  34 100 NW10      29.72S FOG     WCI  26
MASON CITY     CLOUDY    34  32  92 N10       29.80R WCI  26
CHARLES CITY   CLOUDY    34  34 100 NW10      29.76R WCI  26
OELWEIN        CLOUDY    34  34 100 N8        29.74S FOG     WCI  27
$$

...ELSEWHERE IN IOWA...


CITY           SKY/WX    TMP DP  RH WIND       PRES   REMARKS
DES MOINES     LGT SNOW  34  32  92 NW8       29.81R VSB 3/4 WCI  27
IOWA CITY      CLOUDY    37  35  92 NW5       29.76S WCI  33
FORT DODGE     CLOUDY    34  30  86 N8G16     29.82R WCI  27
$$

...NORTHERN ILLINOIS...


CITY           SKY/WX    TMP DP  RH WIND       PRES   REMARKS
CHICAGO-OHARE  MOCLDY    41  36  82 SW3       29.75S
CHICAGO-MIDWAY CLOUDY    45  40  82 S6        29.76S
MOLINE         CLOUDY    38  33  82 SW3       29.74F
ROCKFORD       CLOUDY    39  32  76 CALM      29.77S
PEORIA         FAIR      39  33  79 CALM      29.75F
$$

NOTE: "FAIR" INDICATES FEW OR NO CLOUDS BELOW 12,000 FEET WITH NO
SIGNIFICANT WEATHER AND/OR OBSTRUCTIONS TO VISIBILITY. WIND
SPEEDS ARE IN MILES-PER-HOUR.



USA.gov is the U.S. government's official web portal to all federal, state and local government web resources and services.